SBI5725 UNNT-ZBAD

Flight info

Callsign SBI5725
Flight time N/A
Altitude 35000
Route OGATI1K OGATI A308 LEKOS P982 DARNO/K0830S1070 Y746 ANGID/K0835S1130 Y746 NIXAL G343 TMR/K0839S1100 W65 TUSLA/K0828S1130 W64 ELAPU ELAPU5L
Aircraft B738/M-SDE2E3FGHIRWXY/LB1

Departure

Time N/A
Airport Novosibirsk Tolmachevo Airport (UNNT)

Arrival

Time 2026-05-01 10:00
Airport Beijing Daxing International Airport (ZBAD)
Time Latitude Longitude Altitude Speed Heading
2026-05-01 07:23 51.64962 95.20633 37162 ft 469 kts 117°
2026-05-01 07:24 51.59709 95.33924 37177 ft 468 kts 117°
2026-05-01 07:24 51.56202 95.42755 37163 ft 468 kts 117°
2026-05-01 07:25 51.52701 95.51541 37160 ft 467 kts 117°
2026-05-01 07:25 51.49200 95.60300 37155 ft 465 kts 117°
2026-05-01 07:26 51.45706 95.69013 37182 ft 465 kts 117°
2026-05-01 07:26 51.42200 95.77723 37179 ft 464 kts 117°
2026-05-01 07:27 51.38694 95.86408 37174 ft 465 kts 117°
2026-05-01 07:27 51.35170 95.95108 37163 ft 466 kts 118°
2026-05-01 07:28 51.31657 96.03749 37169 ft 467 kts 118°
2026-05-01 07:28 51.28100 96.12469 37161 ft 469 kts 118°
2026-05-01 07:29 51.24532 96.21187 37186 ft 470 kts 118°
2026-05-01 07:29 51.20940 96.29935 37167 ft 471 kts 118°
2026-05-01 07:30 51.17337 96.38677 37157 ft 472 kts 118°
2026-05-01 07:30 51.13732 96.47397 37159 ft 471 kts 118°
2026-05-01 07:31 51.10121 96.56102 37162 ft 471 kts 118°
2026-05-01 07:32 51.01701 96.76286 37156 ft 469 kts 118°
2026-05-01 07:33 50.96279 96.89201 37156 ft 468 kts 119°
2026-05-01 07:33 50.90861 97.02044 37154 ft 467 kts 119°
2026-05-01 07:34 50.85438 97.14836 37163 ft 466 kts 119°
2026-05-01 07:35 50.81815 97.23347 37188 ft 467 kts 119°
2026-05-01 07:35 50.78210 97.31789 37249 ft 466 kts 119°
2026-05-01 07:36 50.74570 97.40287 37266 ft 468 kts 119°
2026-05-01 07:36 50.70909 97.48806 37263 ft 470 kts 120°
2026-05-01 07:37 50.65372 97.61637 37256 ft 473 kts 120°
2026-05-01 07:37 50.61666 97.70194 37262 ft 473 kts 120°
2026-05-01 07:38 50.57953 97.78740 37256 ft 473 kts 120°
2026-05-01 07:39 50.52384 97.91528 37293 ft 472 kts 120°
2026-05-01 07:39 50.46809 98.04274 37279 ft 471 kts 120°
2026-05-01 07:40 50.43090 98.12745 37277 ft 471 kts 120°
2026-05-01 07:40 50.39371 98.21188 37268 ft 470 kts 120°
2026-05-01 07:41 50.35645 98.29621 37266 ft 471 kts 120°
2026-05-01 07:42 50.30057 98.42134 37281 ft 469 kts 120°
2026-05-01 07:42 50.26311 98.50478 37265 ft 468 kts 120°
2026-05-01 07:43 50.22572 98.58793 37251 ft 467 kts 120°
2026-05-01 07:43 50.16970 98.71202 37252 ft 466 kts 120°
2026-05-01 07:44 50.09471 98.87728 37257 ft 467 kts 121°
2026-05-01 07:45 50.05701 98.95999 37247 ft 468 kts 121°
2026-05-01 07:45 50.01926 99.04257 37230 ft 469 kts 121°
2026-05-01 07:46 49.98130 99.12522 37249 ft 470 kts 121°
2026-05-01 07:47 49.92422 99.24914 37246 ft 470 kts 121°
2026-05-01 07:47 49.88609 99.33160 37242 ft 470 kts 121°
2026-05-01 07:48 49.82880 99.45500 37245 ft 470 kts 121°
2026-05-01 07:48 49.79061 99.53694 37267 ft 469 kts 121°
2026-05-01 07:49 49.73318 99.65970 37235 ft 469 kts 121°
2026-05-01 07:50 49.69493 99.74116 37245 ft 468 kts 121°
2026-05-01 07:50 49.63777 99.86247 37241 ft 467 kts 121°
2026-05-01 07:51 49.59953 99.94329 37272 ft 467 kts 122°
2026-05-01 07:52 49.54199 100.06438 37246 ft 467 kts 122°
2026-05-01 07:52 49.50356 100.14502 37250 ft 467 kts 122°
2026-05-01 07:53 49.44582 100.26573 37251 ft 467 kts 122°
2026-05-01 07:53 49.40727 100.34604 37253 ft 467 kts 122°
2026-05-01 07:55 49.31068 100.54617 37243 ft 466 kts 122°
2026-05-01 07:56 49.21397 100.74508 37248 ft 466 kts 123°
2026-05-01 07:57 49.15565 100.86431 37246 ft 467 kts 123°
2026-05-01 07:58 49.07758 101.02308 37240 ft 468 kts 123°
2026-05-01 07:59 48.99947 101.18101 37249 ft 468 kts 124°
2026-05-01 08:00 48.88126 101.41824 37256 ft 469 kts 124°
2026-05-01 08:01 48.80196 101.57629 37247 ft 471 kts 125°
2026-05-01 08:02 48.74221 101.69476 37247 ft 472 kts 125°
2026-05-01 08:03 48.68213 101.81312 37239 ft 473 kts 125°
2026-05-01 08:03 48.62176 101.93149 37246 ft 474 kts 126°
2026-05-01 08:04 48.54097 102.08918 37247 ft 475 kts 126°
2026-05-01 08:05 48.48041 102.20682 37238 ft 476 kts 127°
2026-05-01 08:06 48.41932 102.32494 37219 ft 476 kts 127°
2026-05-01 08:07 48.33773 102.48187 37229 ft 476 kts 127°
2026-05-01 08:08 48.27652 102.59904 37223 ft 475 kts 127°
2026-05-01 08:09 48.19481 102.75465 37231 ft 474 kts 127°
2026-05-01 08:09 48.15396 102.83211 37225 ft 474 kts 127°
2026-05-01 08:10 48.07213 102.98662 37226 ft 473 kts 128°
2026-05-01 08:11 47.99024 103.14039 37223 ft 473 kts 128°
2026-05-01 08:12 47.92887 103.25509 37227 ft 473 kts 129°
2026-05-01 08:13 47.86712 103.36992 37195 ft 474 kts 129°
2026-05-01 08:13 47.80517 103.48463 37212 ft 474 kts 129°
2026-05-01 08:14 47.76383 103.56098 37212 ft 474 kts 129°
2026-05-01 08:14 47.72238 103.63734 37215 ft 475 kts 130°
2026-05-01 08:15 47.65999 103.75179 37209 ft 476 kts 130°
2026-05-01 08:16 47.61827 103.82807 37219 ft 476 kts 130°
2026-05-01 08:16 47.57653 103.90420 37204 ft 476 kts 130°
2026-05-01 08:17 47.53475 103.98019 37207 ft 475 kts 130°
2026-05-01 08:17 47.49298 104.05592 37213 ft 475 kts 130°
2026-05-01 08:18 47.45116 104.13157 37215 ft 475 kts 130°
2026-05-01 08:19 47.36772 104.28174 37223 ft 474 kts 131°
2026-05-01 08:19 47.32583 104.35681 37215 ft 474 kts 131°
2026-05-01 08:20 47.28389 104.43180 37213 ft 474 kts 131°
2026-05-01 08:20 47.24197 104.50656 37220 ft 473 kts 131°
2026-05-01 08:21 47.20708 104.56862 37218 ft 473 kts 131°
2026-05-01 08:21 47.16509 104.64314 37218 ft 473 kts 131°
2026-05-01 08:22 47.12303 104.71757 37217 ft 473 kts 132°
2026-05-01 08:22 47.08089 104.79192 37212 ft 474 kts 132°
2026-05-01 08:23 47.03873 104.86613 37203 ft 474 kts 132°
2026-05-01 08:23 46.99645 104.94035 37212 ft 474 kts 132°
2026-05-01 08:24 46.95415 105.01440 37211 ft 475 kts 132°
2026-05-01 08:24 46.91168 105.08853 37210 ft 475 kts 132°
2026-05-01 08:25 46.86914 105.16259 37202 ft 476 kts 132°
2026-05-01 08:25 46.82648 105.23665 37209 ft 476 kts 133°
2026-05-01 08:26 46.78378 105.31060 37197 ft 477 kts 133°
2026-05-01 08:26 46.74097 105.38454 37197 ft 477 kts 133°
2026-05-01 08:27 46.69806 105.45843 37198 ft 478 kts 133°
2026-05-01 08:27 46.65503 105.53235 37202 ft 478 kts 133°
2026-05-01 08:28 46.61191 105.60624 37190 ft 479 kts 134°
2026-05-01 08:28 46.56871 105.68004 37202 ft 480 kts 134°
2026-05-01 08:29 46.52559 105.75351 37183 ft 481 kts 134°
2026-05-01 08:29 46.48213 105.82740 37155 ft 482 kts 134°
2026-05-01 08:30 46.43859 105.90122 37183 ft 481 kts 134°
2026-05-01 08:30 46.39492 105.97490 37181 ft 481 kts 134°
2026-05-01 08:31 46.35121 106.04847 37174 ft 482 kts 134°
2026-05-01 08:31 46.30749 106.12191 37171 ft 482 kts 134°
2026-05-01 08:32 46.26371 106.19526 37165 ft 481 kts 135°
2026-05-01 08:32 46.21992 106.26842 37176 ft 481 kts 135°
2026-05-01 08:33 46.17608 106.34149 37162 ft 481 kts 135°
2026-05-01 08:33 46.13226 106.41434 37163 ft 481 kts 135°
2026-05-01 08:34 46.08842 106.48701 37155 ft 480 kts 135°
2026-05-01 08:34 46.04481 106.55913 37152 ft 480 kts 135°
2026-05-01 08:35 46.00087 106.63159 37156 ft 480 kts 135°
2026-05-01 08:35 45.95692 106.70387 37149 ft 480 kts 135°
2026-05-01 08:36 45.91299 106.77598 37147 ft 480 kts 135°
2026-05-01 08:36 45.86896 106.84802 37142 ft 480 kts 136°
2026-05-01 08:37 45.82486 106.91994 37149 ft 480 kts 136°
2026-05-01 08:37 45.78065 106.99188 37140 ft 481 kts 136°
2026-05-01 08:38 45.73642 107.06371 37136 ft 481 kts 136°
2026-05-01 08:38 45.69206 107.13557 37132 ft 482 kts 136°
2026-05-01 08:39 45.64757 107.20744 37124 ft 482 kts 136°
2026-05-01 08:39 45.60308 107.27912 37128 ft 483 kts 136°
2026-05-01 08:40 45.53613 107.38666 37124 ft 483 kts 136°
2026-05-01 08:40 45.49143 107.45823 37129 ft 483 kts 137°
2026-05-01 08:41 45.44664 107.52974 37119 ft 484 kts 137°
2026-05-01 08:41 45.40204 107.60078 37124 ft 484 kts 137°
2026-05-01 08:42 45.35720 107.67201 37113 ft 483 kts 137°
2026-05-01 08:42 45.31225 107.74327 37111 ft 483 kts 138°
2026-05-01 08:43 45.26733 107.81426 37117 ft 484 kts 138°
2026-05-01 08:43 45.22225 107.88530 37115 ft 485 kts 138°
2026-05-01 08:44 45.17707 107.95636 37114 ft 485 kts 138°
2026-05-01 08:44 45.13180 108.02745 37104 ft 486 kts 138°
2026-05-01 08:45 45.08641 108.09836 37107 ft 486 kts 139°
2026-05-01 08:45 45.04088 108.16942 37124 ft 487 kts 139°
2026-05-01 08:46 44.99524 108.24048 37115 ft 488 kts 139°
2026-05-01 08:46 44.94986 108.31096 37101 ft 489 kts 139°
2026-05-01 08:47 44.90369 108.38246 37110 ft 490 kts 139°
2026-05-01 08:47 44.85804 108.45290 37106 ft 491 kts 139°
2026-05-01 08:48 44.81190 108.52390 37107 ft 491 kts 140°
2026-05-01 08:48 44.76575 108.59483 37097 ft 491 kts 140°
2026-05-01 08:49 44.71949 108.66573 37107 ft 492 kts 140°
2026-05-01 08:49 44.67314 108.73659 37107 ft 493 kts 140°
2026-05-01 08:50 44.62666 108.80747 37103 ft 493 kts 140°
2026-05-01 08:50 44.58016 108.87819 37081 ft 493 kts 140°
2026-05-01 08:51 44.53362 108.94882 37102 ft 493 kts 140°
2026-05-01 08:51 44.48702 109.01933 37101 ft 492 kts 140°
2026-05-01 08:52 44.44049 109.08957 37085 ft 492 kts 141°
2026-05-01 08:52 44.39419 109.15928 37098 ft 492 kts 141°
2026-05-01 08:53 44.34753 109.22935 37090 ft 492 kts 141°
2026-05-01 08:53 44.30080 109.29935 37071 ft 492 kts 141°
2026-05-01 08:54 44.25408 109.36918 37077 ft 492 kts 141°
2026-05-01 08:54 44.20722 109.43903 37090 ft 493 kts 141°
2026-05-01 08:55 44.16023 109.50889 37093 ft 495 kts 141°
2026-05-01 08:55 44.11309 109.57881 37096 ft 496 kts 141°
2026-05-01 08:56 44.06574 109.64885 37075 ft 498 kts 141°
2026-05-01 08:56 44.01826 109.71892 37087 ft 498 kts 141°
2026-05-01 08:57 43.97060 109.78909 37084 ft 500 kts 141°
2026-05-01 08:57 43.92278 109.85932 37083 ft 501 kts 141°
2026-05-01 08:58 43.87486 109.92951 37076 ft 502 kts 141°
2026-05-01 08:58 43.82679 109.99975 37083 ft 502 kts 141°
2026-05-01 08:59 43.77859 110.07000 37052 ft 503 kts 141°
2026-05-01 08:59 43.73068 110.13966 37068 ft 503 kts 141°
2026-05-01 09:00 43.68236 110.20975 37071 ft 503 kts 141°
2026-05-01 09:00 43.63408 110.27959 37075 ft 503 kts 141°
2026-05-01 09:01 43.58570 110.34940 37073 ft 503 kts 141°
2026-05-01 09:01 43.53731 110.41906 37062 ft 503 kts 141°
2026-05-01 09:02 43.48885 110.48864 37069 ft 503 kts 141°
2026-05-01 09:02 43.44029 110.55821 37057 ft 504 kts 141°
2026-05-01 09:03 43.39168 110.62765 37055 ft 504 kts 141°
2026-05-01 09:03 43.34299 110.69706 37056 ft 505 kts 141°
2026-05-01 09:04 43.29445 110.76610 37038 ft 505 kts 141°
2026-05-01 09:04 43.24556 110.83547 37053 ft 506 kts 141°
2026-05-01 09:05 43.19730 110.90597 37034 ft 510 kts 137°
2026-05-01 09:05 43.15258 110.98136 37041 ft 512 kts 135°
2026-05-01 09:06 43.10832 111.05794 37051 ft 512 kts 135°
2026-05-01 09:06 43.06377 111.13397 37044 ft 512 kts 135°
2026-05-01 09:07 43.01895 111.20955 37036 ft 511 kts 136°
2026-05-01 09:07 42.98169 111.27208 37015 ft 511 kts 136°
2026-05-01 09:08 42.92973 111.35911 37027 ft 509 kts 136°
2026-05-01 09:08 42.88485 111.43412 37033 ft 509 kts 136°
2026-05-01 09:09 42.84760 111.49623 37029 ft 508 kts 136°
2026-05-01 09:09 42.80284 111.57071 37030 ft 508 kts 136°
2026-05-01 09:10 42.75805 111.64505 37031 ft 508 kts 136°
2026-05-01 09:10 42.71319 111.71931 37024 ft 508 kts 136°
2026-05-01 09:11 42.66830 111.79345 37023 ft 507 kts 136°
2026-05-01 09:11 42.62351 111.86726 37026 ft 507 kts 136°
2026-05-01 09:12 42.57864 111.94137 37024 ft 508 kts 136°
2026-05-01 09:12 42.53420 112.01597 37027 ft 509 kts 135°
2026-05-01 09:13 42.48969 112.09077 37033 ft 510 kts 136°
2026-05-01 09:13 42.44504 112.16545 37009 ft 511 kts 136°
2026-05-01 09:14 42.40054 112.23958 37001 ft 511 kts 136°
2026-05-01 09:14 42.35536 112.31464 37024 ft 511 kts 136°
2026-05-01 09:15 42.31071 112.38862 37023 ft 512 kts 136°
2026-05-01 09:15 42.26554 112.46328 36988 ft 513 kts 136°
2026-05-01 09:16 42.22038 112.53775 37008 ft 513 kts 136°
2026-05-01 09:17 42.15244 112.64945 37000 ft 514 kts 136°
2026-05-01 09:17 42.08430 112.76099 36991 ft 513 kts 136°
2026-05-01 09:18 42.01621 112.87215 36982 ft 513 kts 136°
2026-05-01 09:19 41.94794 112.98315 36976 ft 514 kts 136°
2026-05-01 09:20 41.87941 113.09380 36964 ft 511 kts 140°
2026-05-01 09:20 41.82249 113.14129 36931 ft 468 kts 174°
2026-05-01 09:21 41.76067 113.15083 36968 ft 443 kts 193°
2026-05-01 09:21 41.66734 113.14471 36932 ft 448 kts 194°
2026-05-01 09:22 41.54267 113.13779 36918 ft 450 kts 194°
2026-05-01 09:23 41.44908 113.13323 36925 ft 447 kts 194°
2026-05-01 09:24 41.35610 113.12866 36911 ft 444 kts 194°
2026-05-01 09:25 41.23303 113.12257 36896 ft 441 kts 194°
2026-05-01 09:26 41.14115 113.11804 36927 ft 440 kts 194°
2026-05-01 09:26 41.04923 113.11351 36925 ft 441 kts 194°
2026-05-01 09:27 40.95713 113.10900 36916 ft 442 kts 194°
2026-05-01 09:28 40.89558 113.10600 36932 ft 444 kts 194°
2026-05-01 09:28 40.83366 113.10393 36908 ft 453 kts 186°
2026-05-01 09:28 40.80230 113.11375 36934 ft 474 kts 169°
2026-05-01 09:29 40.74465 113.16072 36909 ft 504 kts 144°
2026-05-01 09:29 40.72110 113.19551 36912 ft 515 kts 132°
2026-05-01 09:30 40.69200 113.28272 36938 ft 526 kts 108°
2026-05-01 09:30 40.66440 113.42279 36912 ft 527 kts 107°
2026-05-01 09:31 40.64563 113.51630 36923 ft 529 kts 108°
2026-05-01 09:32 40.61616 113.65676 36902 ft 533 kts 108°
2026-05-01 09:32 40.59655 113.74902 36873 ft 510 kts 108°
2026-05-01 09:32 40.58714 113.79334 36861 ft 495 kts 108°
2026-05-01 09:33 40.57813 113.83579 36885 ft 481 kts 108°
2026-05-01 09:33 40.56912 113.87806 36888 ft 480 kts 108°
2026-05-01 09:34 40.54149 114.00677 36908 ft 496 kts 109°
2026-05-01 09:34 40.51307 114.13857 36889 ft 502 kts 108°
2026-05-01 09:35 40.48431 114.27144 36894 ft 505 kts 109°
2026-05-01 09:36 40.46510 114.35972 36725 ft 497 kts 109°
2026-05-01 09:36 40.45562 114.40317 36162 ft 494 kts 109°
2026-05-01 09:36 40.44609 114.44665 35115 ft 502 kts 109°
2026-05-01 09:36 40.43630 114.49117 34010 ft 512 kts 109°
2026-05-01 09:37 40.42634 114.53637 32849 ft 518 kts 108°
2026-05-01 09:37 40.40628 114.62735 31063 ft 516 kts 108°
2026-05-01 09:37 40.39638 114.67227 30486 ft 506 kts 108°
2026-05-01 09:38 40.37706 114.75953 29170 ft 491 kts 108°
2026-05-01 09:38 40.36759 114.80212 28493 ft 482 kts 108°
2026-05-01 09:38 40.35828 114.84387 27840 ft 474 kts 108°
2026-05-01 09:39 40.34005 114.92538 26588 ft 458 kts 108°
2026-05-01 09:39 40.33116 114.96501 25933 ft 451 kts 108°
2026-05-01 09:39 40.32235 115.00425 25330 ft 444 kts 108°
2026-05-01 09:40 40.31372 115.04259 24817 ft 435 kts 108°
2026-05-01 09:40 40.29689 115.11722 23684 ft 420 kts 108°
2026-05-01 09:40 40.28867 115.15358 23039 ft 414 kts 108°
2026-05-01 09:41 40.28053 115.18952 22303 ft 409 kts 108°
2026-05-01 09:41 40.26442 115.26048 20791 ft 404 kts 108°
2026-05-01 09:41 40.25643 115.29558 20083 ft 401 kts 108°
2026-05-01 09:42 40.24851 115.33032 19405 ft 397 kts 108°
2026-05-01 09:42 40.24070 115.36461 18897 ft 388 kts 108°
2026-05-01 09:42 40.22545 115.43131 17615 ft 380 kts 108°
2026-05-01 09:43 40.20768 115.49519 16315 ft 368 kts 122°
2026-05-01 09:43 40.19354 115.52214 16068 ft 349 kts 131°
2026-05-01 09:43 40.17712 115.54477 15729 ft 339 kts 138°
2026-05-01 09:44 40.14306 115.58748 15013 ft 346 kts 139°
2026-05-01 09:44 40.12533 115.60958 14622 ft 356 kts 139°
2026-05-01 09:44 40.10746 115.63199 14217 ft 356 kts 138°
2026-05-01 09:45 40.08963 115.65439 13811 ft 355 kts 138°
2026-05-01 09:45 40.05440 115.69891 12960 ft 349 kts 137°
2026-05-01 09:45 40.03705 115.72089 12556 ft 347 kts 137°
2026-05-01 09:46 40.01976 115.74272 12153 ft 344 kts 138°
2026-05-01 09:46 40.00258 115.76439 11769 ft 342 kts 138°
2026-05-01 09:46 39.98556 115.78585 11384 ft 339 kts 137°
2026-05-01 09:46 39.96897 115.80683 11101 ft 333 kts 138°
2026-05-01 09:47 39.95212 115.82797 10739 ft 330 kts 139°
2026-05-01 09:47 39.93596 115.84834 10474 ft 324 kts 137°
2026-05-01 09:47 39.92007 115.86846 10366 ft 313 kts 138°
2026-05-01 09:47 39.90459 115.88785 10210 ft 305 kts 138°
2026-05-01 09:48 39.88952 115.90667 10092 ft 295 kts 137°
2026-05-01 09:48 39.87497 115.92497 9921 ft 289 kts 140°
2026-05-01 09:48 39.86049 115.94299 9629 ft 288 kts 139°
2026-05-01 09:48 39.84612 115.96105 9333 ft 286 kts 138°
2026-05-01 09:49 39.83185 115.97898 9042 ft 285 kts 138°
2026-05-01 09:49 39.81759 115.99686 8754 ft 284 kts 138°
2026-05-01 09:49 39.80335 116.01463 8439 ft 283 kts 139°
2026-05-01 09:49 39.78916 116.03238 8168 ft 282 kts 140°
2026-05-01 09:50 39.77517 116.05018 7874 ft 281 kts 134°
2026-05-01 09:50 39.76604 116.07265 7578 ft 286 kts 103°
2026-05-01 09:50 39.76532 116.09820 7360 ft 284 kts 85°
2026-05-01 09:50 39.76797 116.12362 7089 ft 283 kts 83°
2026-05-01 09:51 39.77070 116.14882 6887 ft 279 kts 84°
2026-05-01 09:51 39.77324 116.17356 6755 ft 272 kts 85°
2026-05-01 09:51 39.77561 116.19764 6625 ft 266 kts 85°
2026-05-01 09:51 39.77787 116.22124 6491 ft 259 kts 85°
2026-05-01 09:52 39.78003 116.24441 6246 ft 258 kts 86°
2026-05-01 09:52 39.78213 116.26760 5997 ft 257 kts 85°
2026-05-01 09:52 39.78421 116.29065 5765 ft 256 kts 85°
2026-05-01 09:52 39.78626 116.31336 5512 ft 256 kts 86°
2026-05-01 09:53 39.78832 116.33626 5281 ft 255 kts 85°
2026-05-01 09:53 39.78700 116.35879 5000 ft 247 kts 118°
2026-05-01 09:53 39.77643 116.37494 4807 ft 233 kts 155°
2026-05-01 09:53 39.76130 116.38123 4574 ft 228 kts 167°
2026-05-01 09:54 39.74582 116.38626 4293 ft 229 kts 168°
2026-05-01 09:54 39.73026 116.39008 4055 ft 227 kts 173°
2026-05-01 09:54 39.71487 116.39287 3922 ft 220 kts 173°
2026-05-01 09:54 39.69985 116.39529 3760 ft 212 kts 174°
2026-05-01 09:55 39.68553 116.39753 3592 ft 205 kts 175°
2026-05-01 09:55 39.67610 116.39900 3468 ft 200 kts 175°
2026-05-01 09:55 39.66243 116.40116 3212 ft 195 kts 174°
2026-05-01 09:55 39.64904 116.40327 2953 ft 191 kts 174°
2026-05-01 09:56 39.63613 116.40531 2701 ft 182 kts 174°
2026-05-01 09:56 39.62391 116.40724 2451 ft 171 kts 173°
2026-05-01 09:56 39.61256 116.40902 2250 ft 159 kts 173°
2026-05-01 09:56 39.60171 116.41073 2094 ft 153 kts 172°
2026-05-01 09:57 39.59120 116.41239 1856 ft 147 kts 169°
2026-05-01 09:57 39.58114 116.41405 1658 ft 146 kts 172°
2026-05-01 09:57 39.57108 116.41560 1451 ft 145 kts 170°
2026-05-01 09:57 39.56112 116.41715 1266 ft 142 kts 169°
2026-05-01 09:58 39.55137 116.41870 1074 ft 142 kts 170°
2026-05-01 09:58 39.54126 116.42030 902 ft 149 kts 168°
2026-05-01 09:58 39.53129 116.42214 737 ft 143 kts 171°
2026-05-01 09:58 39.52123 116.42321 544 ft 148 kts 170°
2026-05-01 09:59 39.51120 116.42499 351 ft 146 kts 169°
2026-05-01 09:59 39.50091 116.42675 139 ft 150 kts 171°
2026-05-01 09:59 39.49110 116.42839 96 ft 130 kts 174°
2026-05-01 09:59 39.48419 116.42939 98 ft 80 kts 173°
2026-05-01 10:00 39.48149 116.42935 96 ft 26 kts 195°
2026-05-01 10:00 39.48039 116.42886 93 ft 14 kts 200°
2026-05-01 10:00 39.47995 116.42793 87 ft 12 kts 310°
2026-05-01 10:00 39.48075 116.42771 86 ft 12 kts 353°
2026-05-01 10:01 39.48154 116.42759 88 ft 11 kts 353°
2026-05-01 10:01 39.48236 116.42745 90 ft 12 kts 353°
2026-05-01 10:01 39.48321 116.42732 86 ft 12 kts 353°
2026-05-01 10:01 39.48404 116.42719 88 ft 12 kts 353°
2026-05-01 10:02 39.48485 116.42706 88 ft 12 kts 352°
2026-05-01 10:02 39.48564 116.42693 87 ft 11 kts 352°
2026-05-01 10:02 39.48640 116.42682 87 ft 11 kts 353°
2026-05-01 10:02 39.48715 116.42671 89 ft 11 kts 353°
2026-05-01 10:03 39.48787 116.42660 89 ft 10 kts 354°
2026-05-01 10:03 39.48857 116.42648 90 ft 10 kts 352°
2026-05-01 10:03 39.48941 116.42635 87 ft 16 kts 353°
2026-05-01 10:03 39.49080 116.42613 89 ft 23 kts 353°
2026-05-01 10:04 39.49240 116.42588 88 ft 23 kts 352°
2026-05-01 10:04 39.49399 116.42550 88 ft 23 kts 336°
2026-05-01 10:04 39.49533 116.42445 86 ft 22 kts 328°
2026-05-01 10:04 39.49680 116.42404 88 ft 22 kts 354°
2026-05-01 10:05 39.49828 116.42380 87 ft 21 kts 354°
2026-05-01 10:05 39.49969 116.42359 88 ft 20 kts 351°
2026-05-01 10:05 39.50109 116.42336 86 ft 20 kts 353°
2026-05-01 10:05 39.50209 116.42262 87 ft 18 kts 278°
2026-05-01 10:06 39.50196 116.42103 86 ft 20 kts 263°
2026-05-01 10:06 39.50174 116.41885 86 ft 27 kts 262°
2026-05-01 10:06 39.50153 116.41649 84 ft 16 kts 273°
2026-05-01 10:06 39.50193 116.41592 88 ft 0 kts 348°
2026-05-01 10:07 39.50200 116.41589 86 ft 7 kts 343°
2026-05-01 10:07 39.50234 116.41555 85 ft 7 kts 264°
2026-05-01 10:08 39.50237 116.41488 85 ft 1 kts 313°
2026-05-01 10:08 39.50256 116.41477 85 ft 8 kts 346°
2026-05-01 10:08 39.50355 116.41461 86 ft 16 kts 354°
2026-05-01 10:09 39.50414 116.41424 87 ft 7 kts 309°
2026-05-01 10:09 39.50441 116.41371 84 ft 6 kts 301°
2026-05-01 10:09 39.50444 116.41365 84 ft 1 kts 302°
2026-05-01 10:09 39.50455 116.41342 84 ft 5 kts 301°
2026-05-01 10:10 39.50464 116.41323 85 ft 0 kts 301°